C/2019 JU6 ( ATLAS )

Japanese version
Home page
Updated on August 31, 2019

---------------------------------------------------------------------

* Profile

Discovery Date May 12 and 21, 2019
Magnitude 18.8 mag
Discoverer Asteroid Terrestrial-Impact Last Alert System (ATLAS) search program, Pan-STARRS 2 telescope (Haleakala)

* Pictures

* Orbital Elements

Epoch 2019 June 6.0 TT = JDT 2458640.5
T 2019 June 1.05739 TT                                  Williams
q   2.0457317            (2000.0)            P               Q
z  +0.0003727      Peri.   94.91717     +0.23380870     -0.95265701
 +/-0.0012251      Node    21.70351     -0.95991575     -0.25795807
e   0.9992376      Incl.  148.29189     +0.15458086     -0.16094177
From 63 observations 2019 May 12-30, mean residual 0".5.

* Magnitudes Graph

        m1 = 14.0 + 5 log d + 10.0 log r

---------------------------------------------------------------------

The orbital elements are published on M.P.E.C. 2019-Q135.
The magnitudes graphs are made with Comet for Windows.

---------------------------------------------------------------------

Copyright(C) Seiichi Yoshida (comet@aerith.net). All rights reserved.